Flag for Canada Weather past 2 weeks in Thompson, Manitoba, Canada

Now
45 °F

Sprinkles. Mostly cloudy.


Feels Like: 38 °F
Forecast: 41 / 71 °F
Wind: 14 mph from North

Location: Thompson

Current Time: Jul 5, 2015 at 7:06:40 PM

Latest Report: Jul 5, 2015 at 6:00 PM


Visibility: 10 mi

Pressure: 29.92 "Hg

Humidity: 93%

Dew point: 43 °F

Location of ThompsonLocation

Historic Weather in Thompson — Graph

°F

Thompson temperature yesterday

Maximum temperature yesterday: 70 °F (at 5:00 PM)
Minimum temperature yesterday: 55 °F (at 11:00 PM)
Average temperature yesterday: 64 °F

Past Weeks' High & Low Weather Summary

 TemperatureHumidityPressure
High84 °F (Jun 26, 5:00 PM)100% (Jun 30, 6:00 AM)30.05 "Hg (Jun 30, 6:00 AM)
Low36 °F (Jun 22, 4:00 AM)25% (Jun 20, 6:00 PM)29.58 "Hg (Jul 4, 10:00 AM)
Average62 °F68%29.84 "Hg
* Reported Jun 20 6:00 PM — Jul 5 6:00 PM, Thompson, Weather by CustomWeather, © 2015

Note: Actual official high and low records may vary slightly from our data, if they occured in-between our weather recording intervals... More about our weather records

Advertising

Thompson weather history for previous 24 hours

 ConditionsComfort  
Time TempWeatherWind HumidityBarometerVisibility
6:00 PM
Sun, Jul 5
45 °FSprinkles. Mostly cloudy.14 mph93%29.92 "Hg10 mi
5:00 PM46 °FSprinkles. Overcast.10 mph87%29.90 "Hg10 mi
4:00 PM46 °FSprinkles. More clouds than sun.15 mph87%29.87 "Hg5 mi
3:00 PM45 °FSprinkles. Overcast.12 mph93%29.85 "Hg10 mi
2:00 PM43 °FSprinkles. More clouds than sun.10 mph93%29.83 "Hg3 mi
1:47 PM43 °FSprinkles. More clouds than sun.10 mph93%29.82 "Hg2 mi
1:00 PM46 °FSprinkles. Mostly cloudy.12 mph87%29.80 "Hg10 mi
12:00 PM46 °FSprinkles. Overcast.13 mph82%29.78 "Hg10 mi
11:00 AM48 °FSprinkles. More clouds than sun.13 mph76%29.77 "Hg12 mi
10:00 AM48 °FSprinkles. More clouds than sun.9 mph82%29.76 "Hg12 mi
9:00 AM46 °FPartly sunny.9 mph82%29.77 "Hg15 mi
7:00 AM45 °FMostly cloudy.6 mph87%29.73 "Hg15 mi
6:00 AM45 °FMostly cloudy.6 mph87%29.74 "Hg15 mi
5:00 AM43 °FPassing clouds.8 mph93%29.72 "Hg15 mi
4:00 AM45 °FPassing clouds.8 mph93%29.72 "Hg15 mi
3:00 AM46 °FPassing clouds.6 mph93%29.70 "Hg10 mi
2:00 AM48 °FPartly cloudy.7 mph94%29.71 "Hg10 mi
1:00 AM50 °FPartly cloudy.5 mph94%29.71 "Hg15 mi
12:00 AM52 °FSprinkles. Mostly cloudy.9 mph94%29.70 "Hg15 mi
11:00 PM
Sat, Jul 4
55 °FSprinkles. Mostly cloudy.7 mph88%29.69 "Hg15 mi
10:00 PM59 °FThunderstorms. Cloudy.10 mph82%29.66 "Hg10 mi
9:00 PM63 °FSprinkles. Mostly cloudy.9 mph83%29.63 "Hg5 mi
8:00 PM66 °FSprinkles. Mostly cloudy.16 mph78%29.62 "Hg5 mi
7:57 PM66 °FSprinkles. Mostly cloudy.14 mph73%29.62 "Hg5 mi
7:00 PM68 °FMostly cloudy.6 mph69%29.62 "Hg15 mi
Weather by CustomWeather, © 2015

See weather overviewHow to use our weather pages